KI5IZM-13 Weather Reports


Display with metric or nautical units.
time (UTC)temp
F
wind
direction
speed
MPH
gust
MPH
rain 1hr
in
rain 24hr
in
rain mn
in
humidity
%
barometer
mb
20260506173026 60 146 1.0 5.0 0.00 0.00 0.00 86 1013.4
20260506171536 59 25 0.0 6.0 0.00 0.00 0.00 87 1014.0
20260506170025 59 352 0.0 7.0 0.00 0.00 0.00 87 1014.6
20260506164526 59 36 1.0 4.0 0.00 0.00 0.00 87 1015.4
20260506163006 59 240 0.0 3.0 0.00 0.00 0.00 87 1015.7
20260506161509 59 269 0.0 6.0 0.00 0.00 0.00 86 1015.1
20260506160012 60 46 0.0 2.0 0.00 0.00 0.00 86 1014.6
20260506154513 60 38 1.0 6.0 0.00 0.00 0.00 86 1014.0
20260506153020 60 11 0.0 3.0 0.00 0.00 0.00 85 1013.5
20260506151505 60 256 0.0 2.0 0.00 0.00 0.00 86 1013.4
20260506150017 60 146 0.0 2.0 0.00 0.00 0.00 86 1013.5
20260506144513 60 49 0.0 8.0 0.00 0.00 0.00 86 1013.3
20260506143036 60 59 0.0 4.0 0.00 0.00 0.00 86 1012.9
20260506141522 61 84 0.0 2.0 0.00 0.00 0.00 87 1012.7
20260506140010 61 61 0.0 6.0 0.00 0.00 0.00 87 1012.6
20260506134508 62 62 0.0 3.0 0.00 0.00 0.00 87 1012.2
20260506133013 63 327 0.0 3.0 0.00 0.00 0.00 86 1012.4
20260506131526 64 209 0.0 5.0 0.00 0.00 0.00 87 1012.1
20260506130024 65 265 0.0 2.0 0.00 0.00 0.00 86 1011.9
20260506124508 66 225 0.0 1.0 0.00 0.00 0.00 86 1011.6
20260506123012 67 85 0.0 2.0 0.00 0.00 0.00 84 1011.2
20260506121517 69 41 0.0 2.0 0.00 0.00 0.00 83 1011.1
20260506120024 70 37 0.0 2.0 0.00 0.00 0.00 84 1010.9
20260506114538 73 276 1.0 3.0 0.00 0.00 0.00 84 1010.6
20260506113026 74 236 0.0 3.0 0.00 0.00 0.00 90 1010.2
20260506111513 74 284 0.0 1.0 0.00 0.00 0.00 90 1009.9
20260506110020 74 257 1.0 4.0 0.00 0.00 0.00 90 1009.7
20260506104523 74 254 0.0 2.0 0.00 0.00 0.00 90 1009.6
20260506103025 74 267 0.0 2.0 0.00 0.00 0.00 90 1009.3
20260506101545 74 281 1.0 4.0 0.00 0.00 0.00 90 1009.3
20260506100017 74 140 0.0 4.0 0.00 0.00 0.00 90 1009.2
20260506094522 74 209 0.0 4.0 0.00 0.00 0.00 90 1009.1
20260506093024 74 257 0.0 6.0 0.00 0.00 0.00 89 1009.1
20260506091528 74 111 1.0 7.0 0.00 0.00 0.00 90 1009.1
20260506090027 75 344 1.0 5.0 0.00 0.00 0.00 90 1009.2
20260506084521 75 240 1.0 6.0 0.00 0.00 0.00 89 1009.0
20260506083020 75 330 0.0 5.0 0.00 0.00 0.00 89 1008.8
20260506081524 74 202 0.0 5.0 0.00 0.00 0.00 90 1009.0
20260506073018 74 128 0.0 3.0 0.00 0.00 0.00 89 1009.2
20260506071508 74 156 1.0 6.0 0.00 0.00 0.00 89 1009.0
20260506061523 75 252 0.0 6.0 0.00 0.00 0.00 87 1009.2
20260506044526 77 94 0.0 8.0 0.00 0.00 0.00 83 1008.8
20260506043010 77 293 1.0 7.0 0.00 0.00 0.00 83 1008.8
20260506041526 76 128 1.0 4.0 0.00 0.00 0.00 84 1008.4
20260506040020 77 156 0.0 5.0 0.00 0.00 0.00 84 1008.2
20260506034526 77 182 1.0 5.0 0.00 0.00 0.00 84 1008.0
20260506033030 77 134 1.0 5.0 0.00 0.00 0.00 83 1007.7
20260506031522 77 142 0.0 3.0 0.00 0.00 0.00 83 1007.9
20260506030023 77 162 1.0 4.0 0.00 0.00 0.00 82 1007.8
20260506024522 78 142 0.0 6.0 0.00 0.00 0.00 82 1007.5
20260506023025 78 140 0.0 3.0 0.00 0.00 0.00 81 1007.4
20260506021529 79 155 0.0 4.0 0.00 0.00 0.00 80 1007.6
20260506020022 79 173 0.0 2.0 0.00 0.00 0.00 80 1007.3
20260506014529 80 115 0.0 2.0 0.00 0.00 0.00 79 1007.2
20260506013003 80 260 1.0 4.0 0.00 0.00 0.00 78 1007.1
20260506011510 80 113 0.0 4.0 0.00 0.00 0.00 78 1006.8
20260506010023 81 126 0.0 1.0 0.00 0.00 0.00 77 1006.7
20260506004534 81 150 0.0 4.0 0.00 0.00 0.00 77 1006.3
20260506003024 82 121 0.0 5.0 0.00 0.00 0.00 75 1006.2
20260506001509 82 102 0.0 7.0 0.00 0.00 0.00 74 1006.1
20260506000016 83 177 2.0 6.0 0.00 0.00 0.00 73 1006.2
20260505234519 83 277 0.0 10.0 0.00 0.00 0.00 72 1006.2
20260505233022 84 125 2.0 10.0 0.00 0.00 0.00 71 1006.1
20260505231527 84 214 0.0 6.0 0.00 0.00 0.00 71 1006.0
20260505230012 84 273 3.0 12.0 0.00 0.00 0.00 70 1005.7
20260505224512 84 304 1.0 11.0 0.00 0.00 0.00 70 1005.8
20260505223018 84 298 2.0 8.0 0.00 0.00 0.00 69 1005.7
20260505221527 84 251 1.0 12.0 0.00 0.00 0.00 70 1005.7
20260505220036 85 201 3.0 11.0 0.00 0.00 0.00 69 1006.0
20260505214518 84 300 6.0 13.0 0.00 0.00 0.00 68 1006.3
20260505213018 84 292 3.0 18.0 0.00 0.00 0.00 70 1006.5
20260505211518 85 308 5.0 12.0 0.00 0.00 0.00 69 1006.4
20260505210029 83 223 4.0 14.0 0.00 0.00 0.00 70 1006.5
20260505204531 83 294 1.0 13.0 0.00 0.00 0.00 72 1006.7
20260505203015 83 141 1.0 15.0 0.00 0.00 0.00 73 1006.7
20260505201518 82 277 3.0 13.0 0.00 0.00 0.00 73 1007.2
20260505200027 82 103 1.0 11.0 0.00 0.00 0.00 74 1007.2
20260505194526 81 248 5.0 14.0 0.00 0.00 0.00 73 1007.3
20260505193040 81 219 3.0 12.0 0.00 0.00 0.00 74 1007.4
20260505191514 80 269 6.0 20.0 0.00 0.00 0.00 74 1007.3
20260505190029 80 236 5.0 14.0 0.00 0.00 0.00 75 1007.5
20260505184526 79 249 3.0 13.0 0.00 0.00 0.00 77 1007.7
20260505183039 79 276 5.0 18.0 0.00 0.00 0.00 76 1007.9
20260505181525 79 87 3.0 13.0 0.00 0.00 0.00 77 1007.8
20260505180035 79 113 4.0 16.0 0.00 0.00 0.00 76 1008.0
20260505174530 78 284 3.0 11.0 0.00 0.00 0.00 77 1008.0